| time (UTC) | temp F | wind direction | speed MPH | gust MPH | rain 1hr in | rain 24hr in | rain mn in | humidity % | barometer mb |
| 20260831003831 | 76 | 129 | 0.0 | 0.0 | 0.00 | 0.00 | 0.00 | 77 | 1019.9 |
| 20260831003326 | 76 | 129 | 0.0 | 0.0 | 0.00 | 0.00 | 0.00 | 75 | 1019.8 |
| 20260831002819 | 76 | 129 | 0.0 | 0.0 | 0.00 | 0.00 | 0.00 | 75 | 1019.8 |
| 20260831002331 | 76 | 129 | 0.0 | 0.0 | 0.00 | 0.00 | 0.00 | 75 | 1019.6 |
| 20260831001822 | 76 | 129 | 0.0 | 0.0 | 0.00 | 0.00 | 0.00 | 75 | 1019.6 |
| 20260831001333 | 76 | 129 | 0.0 | 0.0 | 0.00 | 0.00 | 0.00 | 75 | 1019.5 |
| 20260831000846 | 76 | 129 | 0.0 | 0.0 | 0.00 | 0.00 | 0.00 | 76 | 1019.4 |
| 20260831000318 | 76 | 130 | 0.0 | 0.0 | 0.00 | 0.00 | 0.00 | 76 | 1019.4 |
| 20260830235846 | 77 | 130 | 0.0 | 0.0 | 0.00 | 0.00 | 0.00 | 77 | 1019.3 |
| 20260830235317 | 77 | 130 | 0.0 | 0.0 | 0.00 | 0.00 | 0.00 | 78 | 1019.3 |
| 20260830234813 | 77 | 130 | 0.0 | 2.0 | 0.00 | 0.00 | 0.00 | 78 | 1019.2 |
| 20260830234326 | 77 | 45 | 0.0 | 2.0 | 0.00 | 0.00 | 0.00 | 79 | 1019.3 |
| 20260830233818 | 77 | 159 | 0.0 | 0.0 | 0.00 | 0.00 | 0.00 | 77 | 1019.3 |
| 20260830233350 | 78 | 159 | 0.0 | 0.0 | 0.00 | 0.00 | 0.00 | 77 | 1019.2 |
| 20260830232821 | 78 | 159 | 0.0 | 1.0 | 0.00 | 0.00 | 0.00 | 76 | 1019.1 |
| 20260830232333 | 78 | 159 | 0.0 | 1.0 | 0.00 | 0.00 | 0.00 | 76 | 1019.2 |
| 20260830231824 | 79 | 158 | 0.0 | 3.0 | 0.00 | 0.00 | 0.00 | 74 | 1019.2 |
| 20260830231316 | 79 | 157 | 1.0 | 3.0 | 0.00 | 0.00 | 0.00 | 74 | 1019.2 |
| 20260830230848 | 79 | 155 | 1.0 | 3.0 | 0.00 | 0.00 | 0.00 | 74 | 1019.3 |
| 20260830230319 | 80 | 146 | 0.0 | 3.0 | 0.00 | 0.00 | 0.00 | 74 | 1019.3 |
| 20260830225833 | 80 | 147 | 2.0 | 3.0 | 0.00 | 0.00 | 0.00 | 73 | 1019.4 |
| 20260830225324 | 81 | 149 | 0.0 | 2.0 | 0.00 | 0.00 | 0.00 | 71 | 1019.4 |
| 20260830224837 | 81 | 138 | 0.0 | 3.0 | 0.00 | 0.00 | 0.00 | 70 | 1019.5 |
| 20260830224328 | 81 | 148 | 0.0 | 3.0 | 0.00 | 0.00 | 0.00 | 69 | 1019.6 |
| 20260830223839 | 81 | 157 | 1.0 | 3.0 | 0.00 | 0.00 | 0.00 | 69 | 1019.5 |
| 20260830223351 | 81 | 163 | 1.0 | 5.0 | 0.00 | 0.00 | 0.00 | 69 | 1019.4 |
| 20260830222821 | 81 | 163 | 1.0 | 5.0 | 0.00 | 0.00 | 0.00 | 69 | 1019.4 |
| 20260830222353 | 81 | 173 | 2.0 | 5.0 | 0.00 | 0.00 | 0.00 | 71 | 1019.4 |
| 20260830221825 | 81 | 183 | 2.0 | 5.0 | 0.00 | 0.00 | 0.00 | 71 | 1019.3 |
| 20260830221317 | 81 | 169 | 1.0 | 5.0 | 0.00 | 0.00 | 0.00 | 72 | 1019.4 |
| 20260830220813 | 81 | 218 | 1.0 | 4.0 | 0.00 | 0.00 | 0.00 | 71 | 1019.3 |
| 20260830220325 | 81 | 176 | 1.0 | 5.0 | 0.00 | 0.00 | 0.00 | 70 | 1019.2 |
| 20260830215815 | 81 | 171 | 2.0 | 5.0 | 0.00 | 0.00 | 0.00 | 72 | 1019.3 |
| 20260830215327 | 81 | 173 | 0.0 | 4.0 | 0.00 | 0.00 | 0.00 | 70 | 1019.3 |
| 20260830214819 | 81 | 180 | 1.0 | 5.0 | 0.00 | 0.00 | 0.00 | 72 | 1019.3 |
| 20260830214332 | 81 | 115 | 1.0 | 4.0 | 0.00 | 0.00 | 0.00 | 73 | 1019.4 |
| 20260830213823 | 80 | 178 | 0.0 | 3.0 | 0.00 | 0.00 | 0.00 | 72 | 1019.3 |
| 20260830212827 | 80 | 179 | 0.0 | 3.0 | 0.00 | 0.00 | 0.00 | 73 | 1019.1 |
| 20260830212342 | 80 | 185 | 0.0 | 3.0 | 0.00 | 0.00 | 0.00 | 73 | 1019.1 |
| 20260830211813 | 81 | 165 | 1.0 | 4.0 | 0.00 | 0.00 | 0.00 | 73 | 1019.3 |
| 20260830211325 | 81 | 173 | 2.0 | 5.0 | 0.00 | 0.00 | 0.00 | 73 | 1019.2 |
| 20260830210817 | 81 | 173 | 0.0 | 4.0 | 0.00 | 0.00 | 0.00 | 70 | 1019.2 |
| 20260830210329 | 81 | 179 | 1.0 | 4.0 | 0.00 | 0.00 | 0.00 | 71 | 1019.2 |
| 20260830205819 | 81 | 176 | 0.0 | 5.0 | 0.00 | 0.00 | 0.00 | 72 | 1019.3 |
| 20260830205331 | 80 | 167 | 2.0 | 5.0 | 0.00 | 0.00 | 0.00 | 72 | 1019.3 |
| 20260830204843 | 80 | 165 | 1.0 | 6.0 | 0.00 | 0.00 | 0.00 | 73 | 1019.4 |
| 20260830204346 | 80 | 173 | 3.0 | 6.0 | 0.00 | 0.00 | 0.00 | 71 | 1019.4 |
| 20260830203816 | 81 | 169 | 2.0 | 7.0 | 0.00 | 0.00 | 0.00 | 69 | 1019.4 |
| 20260830203313 | 82 | 148 | 3.0 | 7.0 | 0.00 | 0.00 | 0.00 | 65 | 1019.5 |
| 20260830202825 | 82 | 153 | 2.0 | 9.0 | 0.00 | 0.00 | 0.00 | 62 | 1019.5 |
| 20260830202318 | 82 | 308 | 4.0 | 13.0 | 0.00 | 0.00 | 0.00 | 61 | 1019.4 |
| 20260830201829 | 83 | 291 | 7.0 | 14.0 | 0.00 | 0.00 | 0.00 | 59 | 1019.3 |
| 20260830201341 | 84 | 310 | 7.0 | 14.0 | 0.00 | 0.00 | 0.00 | 57 | 1019.4 |
| 20260830200852 | 85 | 277 | 3.0 | 8.0 | 0.00 | 0.00 | 0.00 | 56 | 1019.3 |
| 20260830200324 | 85 | 81 | 2.0 | 7.0 | 0.00 | 0.00 | 0.00 | 57 | 1019.4 |
| 20260830195853 | 86 | 281 | 2.0 | 7.0 | 0.00 | 0.00 | 0.00 | 56 | 1019.4 |
| 20260830195345 | 87 | 298 | 3.0 | 5.0 | 0.00 | 0.00 | 0.00 | 53 | 1019.4 |
| 20260830194815 | 87 | 317 | 3.0 | 7.0 | 0.00 | 0.00 | 0.00 | 55 | 1019.4 |
| 20260830194329 | 87 | 87 | 1.0 | 8.0 | 0.00 | 0.00 | 0.00 | 56 | 1019.6 |
| 20260830193824 | 87 | 117 | 3.0 | 8.0 | 0.00 | 0.00 | 0.00 | 55 | 1019.6 |
| 20260830193316 | 87 | 291 | 3.0 | 9.0 | 0.00 | 0.00 | 0.00 | 56 | 1019.7 |
| 20260830192828 | 87 | 283 | 2.0 | 9.0 | 0.00 | 0.00 | 0.00 | 57 | 1019.7 |
| 20260830192319 | 87 | 306 | 2.0 | 8.0 | 0.00 | 0.00 | 0.00 | 56 | 1019.8 |
| 20260830191852 | 87 | 302 | 4.0 | 7.0 | 0.00 | 0.00 | 0.00 | 56 | 1019.8 |
| 20260830191323 | 87 | 288 | 0.0 | 5.0 | 0.00 | 0.00 | 0.00 | 56 | 1019.8 |
| 20260830190814 | 87 | 183 | 3.0 | 7.0 | 0.00 | 0.00 | 0.00 | 57 | 1019.8 |
| 20260830190327 | 86 | 189 | 3.0 | 7.0 | 0.00 | 0.00 | 0.00 | 59 | 1019.9 |
| 20260830185838 | 86 | 155 | 1.0 | 7.0 | 0.00 | 0.00 | 0.00 | 60 | 1019.9 |
| 20260830185313 | 85 | 9 | 1.0 | 8.0 | 0.00 | 0.00 | 0.00 | 62 | 1020.1 |
| 20260830184825 | 85 | 275 | 3.0 | 8.0 | 0.00 | 0.00 | 0.00 | 63 | 1020.3 |
| 20260830184317 | 84 | 12 | 4.0 | 6.0 | 0.00 | 0.00 | 0.00 | 64 | 1020.4 |
| 20260830183828 | 83 | 271 | 3.0 | 5.0 | 0.00 | 0.00 | 0.00 | 67 | 1020.5 |
| 20260830183321 | 83 | 360 | 3.0 | 5.0 | 0.00 | 0.00 | 0.00 | 64 | 1020.6 |
| 20260830182832 | 83 | 289 | 2.0 | 6.0 | 0.00 | 0.00 | 0.00 | 68 | 1020.6 |
| 20260830182324 | 82 | 307 | 3.0 | 6.0 | 0.00 | 0.00 | 0.00 | 66 | 1020.8 |
| 20260830181816 | 82 | 288 | 2.0 | 8.0 | 0.00 | 0.00 | 0.00 | 64 | 1020.7 |
| 20260830181333 | 83 | 279 | 3.0 | 6.0 | 0.00 | 0.00 | 0.00 | 63 | 1020.7 |
| 20260830180821 | 83 | 289 | 4.0 | 6.0 | 0.00 | 0.00 | 0.00 | 60 | 1020.7 |
| 20260830180333 | 84 | 305 | 4.0 | 7.0 | 0.00 | 0.00 | 0.00 | 59 | 1020.7 |
| 20260830175844 | 85 | 295 | 3.0 | 7.0 | 0.00 | 0.00 | 0.00 | 58 | 1020.7 |
| 20260830175315 | 86 | 302 | 4.0 | 8.0 | 0.00 | 0.00 | 0.00 | 58 | 1020.8 |
| 20260830174827 | 87 | 301 | 4.0 | 10.0 | 0.00 | 0.00 | 0.00 | 56 | 1020.8 |
| 20260830173831 | 87 | 168 | 2.0 | 6.0 | 0.00 | 0.00 | 0.00 | 57 | 1020.9 |
| 20260830173343 | 87 | 162 | 2.0 | 8.0 | 0.00 | 0.00 | 0.00 | 56 | 1020.9 |
| 20260830172817 | 86 | 119 | 2.0 | 10.0 | 0.00 | 0.00 | 0.00 | 59 | 1021.0 |
| 20260830172329 | 86 | 285 | 1.0 | 11.0 | 0.00 | 0.00 | 0.00 | 58 | 1021.0 |
| 20260830171821 | 85 | 101 | 1.0 | 10.0 | 0.00 | 0.00 | 0.00 | 61 | 1021.1 |
| 20260830171313 | 85 | 300 | 5.0 | 8.0 | 0.00 | 0.00 | 0.00 | 62 | 1021.1 |
| 20260830170825 | 84 | 315 | 2.0 | 7.0 | 0.00 | 0.00 | 0.00 | 68 | 1021.2 |
| 20260830170317 | 83 | 285 | 2.0 | 5.0 | 0.00 | 0.00 | 0.00 | 67 | 1021.3 |
| 20260830165826 | 82 | 206 | 0.0 | 5.0 | 0.00 | 0.00 | 0.00 | 69 | 1021.4 |
| 20260830165338 | 82 | 230 | 1.0 | 5.0 | 0.00 | 0.00 | 0.00 | 66 | 1021.4 |
| 20260830164830 | 82 | 278 | 1.0 | 6.0 | 0.00 | 0.00 | 0.00 | 65 | 1021.4 |
| 20260830164326 | 83 | 292 | 2.0 | 5.0 | 0.00 | 0.00 | 0.00 | 66 | 1021.5 |
| 20260830163818 | 84 | 304 | 3.0 | 5.0 | 0.00 | 0.00 | 0.00 | 65 | 1021.5 |
| 20260830163351 | 84 | 312 | 3.0 | 8.0 | 0.00 | 0.00 | 0.00 | 67 | 1021.5 |
| 20260830162822 | 84 | 288 | 3.0 | 8.0 | 0.00 | 0.00 | 0.00 | 67 | 1021.6 |
| 20260830162334 | 84 | 310 | 4.0 | 7.0 | 0.00 | 0.00 | 0.00 | 67 | 1021.8 |
| 20260830161824 | 85 | 180 | 4.0 | 7.0 | 0.00 | 0.00 | 0.00 | 64 | 1021.7 |
| 20260830161336 | 85 | 164 | 2.0 | 6.0 | 0.00 | 0.00 | 0.00 | 64 | 1021.7 |
| 20260830160827 | 84 | 300 | 0.0 | 4.0 | 0.00 | 0.00 | 0.00 | 64 | 1021.8 |
| 20260830160319 | 85 | 196 | 1.0 | 5.0 | 0.00 | 0.00 | 0.00 | 64 | 1021.8 |
| 20260830155830 | 85 | 169 | 2.0 | 7.0 | 0.00 | 0.00 | 0.00 | 67 | 1021.9 |
| 20260830155326 | 84 | 315 | 4.0 | 8.0 | 0.00 | 0.00 | 0.00 | 66 | 1021.8 |
| 20260830154817 | 84 | 295 | 3.0 | 8.0 | 0.00 | 0.00 | 0.00 | 67 | 1021.9 |
| 20260830154329 | 84 | 306 | 2.0 | 6.0 | 0.00 | 0.00 | 0.00 | 67 | 1021.9 |
| 20260830153818 | 83 | 121 | 2.0 | 6.0 | 0.00 | 0.00 | 0.00 | 67 | 1022.0 |
| 20260830153330 | 83 | 175 | 1.0 | 6.0 | 0.00 | 0.00 | 0.00 | 67 | 1021.8 |
| 20260830152823 | 82 | 171 | 4.0 | 9.0 | 0.00 | 0.00 | 0.00 | 69 | 1021.9 |
| 20260830152335 | 82 | 171 | 3.0 | 9.0 | 0.00 | 0.00 | 0.00 | 70 | 1021.9 |
| 20260830151827 | 82 | 182 | 4.0 | 7.0 | 0.00 | 0.00 | 0.00 | 70 | 1021.8 |
| 20260830151338 | 82 | 173 | 3.0 | 9.0 | 0.00 | 0.00 | 0.00 | 72 | 1021.8 |
| 20260830150813 | 82 | 159 | 3.0 | 9.0 | 0.00 | 0.00 | 0.00 | 69 | 1021.8 |
| 20260830150327 | 81 | 167 | 4.0 | 7.0 | 0.00 | 0.00 | 0.00 | 71 | 1021.9 |
| 20260830145816 | 81 | 149 | 2.0 | 9.0 | 0.00 | 0.00 | 0.00 | 71 | 1021.9 |
| 20260830145328 | 80 | 107 | 2.0 | 9.0 | 0.00 | 0.00 | 0.00 | 71 | 1021.8 |
| 20260830144820 | 80 | 181 | 4.0 | 8.0 | 0.00 | 0.00 | 0.00 | 73 | 1021.8 |
| 20260830144332 | 80 | 169 | 3.0 | 6.0 | 0.00 | 0.00 | 0.00 | 75 | 1021.8 |
| 20260830143844 | 80 | 171 | 2.0 | 8.0 | 0.00 | 0.00 | 0.00 | 73 | 1021.8 |
| 20260830143315 | 80 | 177 | 4.0 | 8.0 | 0.00 | 0.00 | 0.00 | 75 | 1021.8 |
| 20260830142826 | 79 | 178 | 3.0 | 8.0 | 0.00 | 0.00 | 0.00 | 76 | 1021.8 |
| 20260830142338 | 79 | 171 | 4.0 | 11.0 | 0.00 | 0.00 | 0.00 | 75 | 1021.8 |
| 20260830141850 | 78 | 185 | 5.0 | 11.0 | 0.00 | 0.00 | 0.00 | 76 | 1021.8 |
| 20260830141324 | 78 | 194 | 3.0 | 7.0 | 0.00 | 0.00 | 0.00 | 78 | 1021.7 |
| 20260830140816 | 78 | 165 | 2.0 | 7.0 | 0.00 | 0.00 | 0.00 | 78 | 1021.7 |
| 20260830140328 | 77 | 175 | 5.0 | 8.0 | 0.00 | 0.00 | 0.00 | 77 | 1021.7 |
| 20260830135839 | 77 | 181 | 6.0 | 8.0 | 0.00 | 0.00 | 0.00 | 77 | 1021.7 |
| 20260830135350 | 77 | 156 | 3.0 | 6.0 | 0.00 | 0.00 | 0.00 | 77 | 1021.7 |
| 20260830134841 | 77 | 184 | 3.0 | 5.0 | 0.00 | 0.00 | 0.00 | 77 | 1021.8 |
| 20260830134332 | 77 | 169 | 3.0 | 5.0 | 0.00 | 0.00 | 0.00 | 81 | 1021.9 |
| 20260830133824 | 76 | 187 | 3.0 | 7.0 | 0.00 | 0.00 | 0.00 | 80 | 1021.9 |
| 20260830133337 | 76 | 167 | 3.0 | 7.0 | 0.00 | 0.00 | 0.00 | 82 | 1021.9 |
| 20260830132827 | 75 | 168 | 3.0 | 6.0 | 0.00 | 0.00 | 0.00 | 81 | 1022.0 |
| 20260830132341 | 75 | 175 | 4.0 | 6.0 | 0.00 | 0.00 | 0.00 | 81 | 1022.0 |
| 20260830131817 | 74 | 175 | 1.0 | 7.0 | 0.00 | 0.00 | 0.00 | 83 | 1021.9 |
| 20260830131349 | 74 | 178 | 3.0 | 6.0 | 0.00 | 0.00 | 0.00 | 84 | 1022.1 |
| 20260830130820 | 73 | 175 | 3.0 | 6.0 | 0.00 | 0.00 | 0.00 | 85 | 1022.1 |
| 20260830130332 | 73 | 180 | 2.0 | 5.0 | 0.00 | 0.00 | 0.00 | 87 | 1022.2 |
| 20260830125823 | 72 | 167 | 1.0 | 5.0 | 0.00 | 0.00 | 0.00 | 88 | 1022.2 |
| 20260830125315 | 71 | 178 | 1.0 | 3.0 | 0.00 | 0.00 | 0.00 | 88 | 1022.2 |
| 20260830124848 | 71 | 179 | 1.0 | 4.0 | 0.00 | 0.00 | 0.00 | 88 | 1022.2 |
| 20260830124319 | 71 | 181 | 2.0 | 5.0 | 0.00 | 0.00 | 0.00 | 89 | 1022.4 |
| 20260830123831 | 71 | 172 | 3.0 | 5.0 | 0.00 | 0.00 | 0.00 | 88 | 1022.3 |
| 20260830123327 | 71 | 170 | 4.0 | 6.0 | 0.00 | 0.00 | 0.00 | 89 | 1022.3 |
| 20260830122819 | 71 | 178 | 2.0 | 6.0 | 0.00 | 0.00 | 0.00 | 90 | 1022.3 |
| 20260830122331 | 70 | 173 | 2.0 | 5.0 | 0.00 | 0.00 | 0.00 | 90 | 1022.3 |
| 20260830121823 | 70 | 190 | 3.0 | 6.0 | 0.00 | 0.00 | 0.00 | 91 | 1022.4 |
| 20260830121315 | 69 | 172 | 2.0 | 5.0 | 0.00 | 0.00 | 0.00 | 91 | 1022.4 |
| 20260830120827 | 69 | 170 | 1.0 | 5.0 | 0.00 | 0.00 | 0.00 | 91 | 1022.3 |
| 20260830120318 | 68 | 174 | 0.0 | 3.0 | 0.00 | 0.00 | 0.00 | 91 | 1022.3 |
| 20260830115828 | 68 | 183 | 1.0 | 4.0 | 0.00 | 0.00 | 0.00 | 91 | 1022.4 |
| 20260830115324 | 68 | 175 | 2.0 | 5.0 | 0.00 | 0.00 | 0.00 | 91 | 1022.4 |
| 20260830114817 | 68 | 192 | 2.0 | 7.0 | 0.00 | 0.00 | 0.00 | 91 | 1022.3 |
| 20260830114349 | 68 | 173 | 3.0 | 7.0 | 0.00 | 0.00 | 0.00 | 91 | 1022.4 |
| 20260830113820 | 68 | 175 | 1.0 | 3.0 | 0.00 | 0.00 | 0.00 | 91 | 1022.3 |
| 20260830113331 | 68 | 171 | 1.0 | 4.0 | 0.00 | 0.00 | 0.00 | 92 | 1022.3 |
| 20260830112822 | 68 | 175 | 1.0 | 4.0 | 0.00 | 0.00 | 0.00 | 92 | 1022.3 |
| 20260830112314 | 68 | 177 | 1.0 | 3.0 | 0.00 | 0.00 | 0.00 | 92 | 1022.3 |
| 20260830111827 | 68 | 170 | 1.0 | 3.0 | 0.00 | 0.00 | 0.00 | 92 | 1022.3 |
| 20260830111319 | 68 | 169 | 1.0 | 3.0 | 0.00 | 0.00 | 0.00 | 91 | 1022.2 |
| 20260830110815 | 68 | 174 | 2.0 | 4.0 | 0.00 | 0.00 | 0.00 | 91 | 1022.1 |
| 20260830110327 | 68 | 172 | 1.0 | 4.0 | 0.00 | 0.00 | 0.00 | 91 | 1022.1 |
| 20260830105836 | 68 | 178 | 2.0 | 4.0 | 0.00 | 0.00 | 0.00 | 92 | 1022.0 |
| 20260830105328 | 68 | 169 | 1.0 | 2.0 | 0.00 | 0.00 | 0.00 | 92 | 1022.0 |
| 20260830104819 | 67 | 175 | 0.0 | 3.0 | 0.00 | 0.00 | 0.00 | 92 | 1021.9 |
| 20260830104331 | 67 | 180 | 0.0 | 3.0 | 0.00 | 0.00 | 0.00 | 92 | 1021.9 |
| 20260830103823 | 67 | 183 | 0.0 | 2.0 | 0.00 | 0.00 | 0.00 | 92 | 1021.8 |
| 20260830103315 | 67 | 229 | 0.0 | 0.0 | 0.00 | 0.00 | 0.00 | 92 | 1021.9 |
| 20260830102827 | 67 | 229 | 0.0 | 0.0 | 0.00 | 0.00 | 0.00 | 92 | 1021.8 |
| 20260830102322 | 66 | 229 | 0.0 | 0.0 | 0.00 | 0.00 | 0.00 | 92 | 1021.9 |
| 20260830101814 | 66 | 229 | 0.0 | 0.0 | 0.00 | 0.00 | 0.00 | 92 | 1021.8 |
| 20260830101325 | 66 | 229 | 0.0 | 0.0 | 0.00 | 0.00 | 0.00 | 92 | 1021.9 |
| 20260830100817 | 67 | 229 | 0.0 | 0.0 | 0.00 | 0.00 | 0.00 | 92 | 1021.9 |
| 20260830100330 | 66 | 237 | 0.0 | 0.0 | 0.00 | 0.00 | 0.00 | 92 | 1022.0 |
| 20260830095819 | 66 | 237 | 0.0 | 0.0 | 0.00 | 0.00 | 0.00 | 92 | 1022.0 |
| 20260830095331 | 66 | 237 | 0.0 | 0.0 | 0.00 | 0.00 | 0.00 | 92 | 1022.1 |
| 20260830094823 | 67 | 237 | 0.0 | 0.0 | 0.00 | 0.00 | 0.00 | 92 | 1022.0 |
| 20260830094318 | 67 | 237 | 0.0 | 0.0 | 0.00 | 0.00 | 0.00 | 92 | 1022.0 |
| 20260830093830 | 67 | 237 | 0.0 | 0.0 | 0.00 | 0.00 | 0.00 | 92 | 1022.1 |
| 20260830093322 | 66 | 237 | 0.0 | 0.0 | 0.00 | 0.00 | 0.00 | 92 | 1022.2 |
| 20260830092813 | 66 | 238 | 0.0 | 2.0 | 0.00 | 0.00 | 0.00 | 91 | 1022.2 |
| 20260830092326 | 67 | 233 | 0.0 | 2.0 | 0.00 | 0.00 | 0.00 | 91 | 1022.2 |
| 20260830091817 | 67 | 220 | 0.0 | 0.0 | 0.00 | 0.00 | 0.00 | 91 | 1022.2 |
| 20260830091330 | 67 | 214 | 0.0 | 0.0 | 0.00 | 0.00 | 0.00 | 92 | 1022.2 |
| 20260830090821 | 66 | 214 | 0.0 | 0.0 | 0.00 | 0.00 | 0.00 | 91 | 1022.2 |
| 20260830090317 | 66 | 214 | 0.0 | 0.0 | 0.00 | 0.00 | 0.00 | 91 | 1022.3 |
| 20260830085827 | 66 | 214 | 0.0 | 0.0 | 0.00 | 0.00 | 0.00 | 91 | 1022.2 |
| 20260830085320 | 66 | 214 | 0.0 | 0.0 | 0.00 | 0.00 | 0.00 | 90 | 1022.2 |
| 20260830084832 | 67 | 214 | 0.0 | 0.0 | 0.00 | 0.00 | 0.00 | 90 | 1022.3 |
| 20260830084344 | 67 | 214 | 0.0 | 0.0 | 0.00 | 0.00 | 0.00 | 90 | 1022.2 |
| 20260830083814 | 67 | 214 | 0.0 | 0.0 | 0.00 | 0.00 | 0.00 | 89 | 1022.3 |
| 20260830083326 | 67 | 214 | 0.0 | 0.0 | 0.00 | 0.00 | 0.00 | 90 | 1022.2 |
| 20260830082818 | 67 | 214 | 0.0 | 0.0 | 0.00 | 0.00 | 0.00 | 90 | 1022.3 |
| 20260830082313 | 67 | 214 | 0.0 | 0.0 | 0.00 | 0.00 | 0.00 | 88 | 1022.2 |
| 20260830081846 | 67 | 214 | 0.0 | 0.0 | 0.00 | 0.00 | 0.00 | 88 | 1022.3 |
| 20260830081316 | 67 | 214 | 0.0 | 0.0 | 0.00 | 0.00 | 0.00 | 88 | 1022.3 |
| 20260830080828 | 68 | 214 | 0.0 | 0.0 | 0.00 | 0.00 | 0.00 | 88 | 1022.3 |
| 20260830080320 | 68 | 214 | 0.0 | 2.0 | 0.00 | 0.00 | 0.00 | 87 | 1022.4 |
| 20260830075831 | 68 | 214 | 0.0 | 2.0 | 0.00 | 0.00 | 0.00 | 87 | 1022.4 |
| 20260830075322 | 69 | 195 | 0.0 | 3.0 | 0.00 | 0.00 | 0.00 | 87 | 1022.4 |
| 20260830074814 | 69 | 182 | 1.0 | 6.0 | 0.00 | 0.00 | 0.00 | 87 | 1022.4 |
| 20260830074326 | 68 | 175 | 0.0 | 3.0 | 0.00 | 0.00 | 0.00 | 87 | 1022.4 |
| 20260830073822 | 68 | 184 | 0.0 | 2.0 | 0.00 | 0.00 | 0.00 | 87 | 1022.4 |
| 20260830073313 | 69 | 184 | 0.0 | 3.0 | 0.00 | 0.00 | 0.00 | 87 | 1022.4 |
| 20260830072825 | 69 | 171 | 0.0 | 3.0 | 0.00 | 0.00 | 0.00 | 87 | 1022.4 |
| 20260830072317 | 68 | 171 | 0.0 | 3.0 | 0.00 | 0.00 | 0.00 | 87 | 1022.4 |
| 20260830071830 | 68 | 173 | 1.0 | 3.0 | 0.00 | 0.00 | 0.00 | 87 | 1022.4 |
| 20260830071321 | 68 | 178 | 0.0 | 4.0 | 0.00 | 0.00 | 0.00 | 86 | 1022.5 |
| 20260830070833 | 68 | 177 | 0.0 | 4.0 | 0.00 | 0.00 | 0.00 | 86 | 1022.4 |
| 20260830070324 | 68 | 180 | 0.0 | 3.0 | 0.00 | 0.00 | 0.00 | 86 | 1022.5 |
| 20260830065817 | 69 | 182 | 0.0 | 3.0 | 0.00 | 0.00 | 0.00 | 86 | 1022.5 |
| 20260830065329 | 69 | 182 | 0.0 | 4.0 | 0.00 | 0.00 | 0.00 | 86 | 1022.5 |
| 20260830064821 | 69 | 172 | 1.0 | 4.0 | 0.00 | 0.00 | 0.00 | 86 | 1022.4 |
| 20260830064333 | 69 | 171 | 1.0 | 6.0 | 0.00 | 0.00 | 0.00 | 85 | 1022.4 |
| 20260830063825 | 69 | 173 | 3.0 | 7.0 | 0.00 | 0.00 | 0.00 | 85 | 1022.4 |
| 20260830063316 | 69 | 184 | 4.0 | 7.0 | 0.00 | 0.00 | 0.00 | 86 | 1022.4 |
| 20260830062829 | 68 | 169 | 3.0 | 7.0 | 0.00 | 0.00 | 0.00 | 86 | 1022.4 |
| 20260830062341 | 68 | 170 | 3.0 | 5.0 | 0.00 | 0.00 | 0.00 | 85 | 1022.5 |
| 20260830061832 | 68 | 175 | 2.0 | 5.0 | 0.00 | 0.00 | 0.00 | 84 | 1022.5 |
| 20260830061345 | 68 | 164 | 2.0 | 5.0 | 0.00 | 0.00 | 0.00 | 84 | 1022.6 |
| 20260830060821 | 69 | 174 | 3.0 | 5.0 | 0.00 | 0.00 | 0.00 | 84 | 1022.8 |
| 20260830060332 | 69 | 171 | 0.0 | 3.0 | 0.00 | 0.00 | 0.00 | 84 | 1022.9 |
| 20260830055821 | 69 | 173 | 1.0 | 5.0 | 0.00 | 0.00 | 0.00 | 84 | 1023.0 |
| 20260830055353 | 69 | 170 | 1.0 | 5.0 | 0.00 | 0.00 | 0.00 | 84 | 1023.0 |
| 20260830054823 | 69 | 155 | 0.0 | 0.0 | 0.00 | 0.00 | 0.00 | 83 | 1023.0 |
| 20260830054315 | 69 | 155 | 0.0 | 0.0 | 0.00 | 0.00 | 0.00 | 83 | 1023.0 |
| 20260830053847 | 69 | 155 | 0.0 | 0.0 | 0.00 | 0.00 | 0.00 | 83 | 1023.0 |
| 20260830053338 | 69 | 153 | 0.0 | 0.0 | 0.00 | 0.00 | 0.00 | 83 | 1023.0 |
| 20260830052850 | 69 | 153 | 0.0 | 0.0 | 0.00 | 0.00 | 0.00 | 83 | 1023.0 |
| 20260830052321 | 69 | 153 | 0.0 | 0.0 | 0.00 | 0.00 | 0.00 | 83 | 1023.1 |
| 20260830051817 | 69 | 153 | 0.0 | 0.0 | 0.00 | 0.00 | 0.00 | 83 | 1023.0 |
| 20260830051329 | 69 | 153 | 0.0 | 0.0 | 0.00 | 0.00 | 0.00 | 82 | 1023.0 |
| 20260830050819 | 69 | 153 | 0.0 | 0.0 | 0.00 | 0.00 | 0.00 | 82 | 1022.9 |
| 20260830050332 | 69 | 153 | 0.0 | 0.0 | 0.00 | 0.00 | 0.00 | 83 | 1023.0 |
| 20260830045821 | 69 | 153 | 0.0 | 0.0 | 0.00 | 0.00 | 0.00 | 83 | 1023.0 |
| 20260830045333 | 69 | 167 | 0.0 | 0.0 | 0.00 | 0.00 | 0.00 | 83 | 1023.0 |
| 20260830044825 | 69 | 166 | 0.0 | 0.0 | 0.00 | 0.00 | 0.00 | 83 | 1023.1 |
| 20260830044336 | 69 | 166 | 0.0 | 0.0 | 0.00 | 0.00 | 0.00 | 83 | 1023.1 |
| 20260830043828 | 69 | 166 | 0.0 | 0.0 | 0.00 | 0.00 | 0.00 | 83 | 1023.0 |
| 20260830043340 | 69 | 166 | 0.0 | 0.0 | 0.00 | 0.00 | 0.00 | 82 | 1023.0 |
| 20260830042815 | 69 | 166 | 0.0 | 0.0 | 0.00 | 0.00 | 0.00 | 82 | 1022.9 |
| 20260830042327 | 69 | 166 | 0.0 | 0.0 | 0.00 | 0.00 | 0.00 | 82 | 1022.8 |
| 20260830041819 | 70 | 166 | 0.0 | 0.0 | 0.00 | 0.00 | 0.00 | 82 | 1022.7 |
| 20260830041331 | 70 | 166 | 0.0 | 0.0 | 0.00 | 0.00 | 0.00 | 82 | 1022.8 |
| 20260830040823 | 69 | 164 | 0.0 | 0.0 | 0.00 | 0.00 | 0.00 | 82 | 1022.8 |
| 20260830040334 | 69 | 164 | 0.0 | 0.0 | 0.00 | 0.00 | 0.00 | 82 | 1022.7 |
| 20260830035823 | 70 | 165 | 0.0 | 0.0 | 0.00 | 0.00 | 0.00 | 82 | 1022.8 |
| 20260830035315 | 70 | 165 | 0.0 | 0.0 | 0.00 | 0.00 | 0.00 | 82 | 1022.8 |
| 20260830034827 | 70 | 165 | 0.0 | 0.0 | 0.00 | 0.00 | 0.00 | 82 | 1022.7 |
| 20260830034322 | 70 | 165 | 0.0 | 3.0 | 0.00 | 0.00 | 0.00 | 81 | 1022.8 |
| 20260830033814 | 70 | 167 | 0.0 | 2.0 | 0.00 | 0.00 | 0.00 | 81 | 1022.8 |
| 20260830033326 | 70 | 167 | 1.0 | 3.0 | 0.00 | 0.00 | 0.00 | 81 | 1022.9 |
| 20260830032818 | 70 | 163 | 1.0 | 4.0 | 0.00 | 0.00 | 0.00 | 81 | 1022.9 |
| 20260830032331 | 70 | 175 | 0.0 | 2.0 | 0.00 | 0.00 | 0.00 | 80 | 1023.0 |
| 20260830031823 | 70 | 175 | 0.0 | 2.0 | 0.00 | 0.00 | 0.00 | 80 | 1022.9 |
| 20260830031315 | 71 | 167 | 0.0 | 2.0 | 0.00 | 0.00 | 0.00 | 79 | 1022.8 |
| 20260830030847 | 71 | 167 | 0.0 | 3.0 | 0.00 | 0.00 | 0.00 | 79 | 1022.9 |
| 20260830030321 | 71 | 148 | 0.0 | 2.0 | 0.00 | 0.00 | 0.00 | 79 | 1022.9 |
| 20260830025833 | 71 | 150 | 0.0 | 2.0 | 0.00 | 0.00 | 0.00 | 79 | 1023.0 |
| 20260830025324 | 71 | 155 | 0.0 | 3.0 | 0.00 | 0.00 | 0.00 | 78 | 1023.0 |
| 20260830024816 | 71 | 155 | 1.0 | 3.0 | 0.00 | 0.00 | 0.00 | 78 | 1023.0 |
| 20260830024328 | 71 | 157 | 0.0 | 3.0 | 0.00 | 0.00 | 0.00 | 78 | 1023.0 |
| 20260830023820 | 71 | 159 | 1.0 | 6.0 | 0.00 | 0.00 | 0.00 | 78 | 1023.0 |
| 20260830023332 | 71 | 159 | 1.0 | 6.0 | 0.00 | 0.00 | 0.00 | 78 | 1023.0 |
| 20260830022824 | 71 | 185 | 2.0 | 5.0 | 0.00 | 0.00 | 0.00 | 78 | 1023.0 |
| 20260830022335 | 71 | 160 | 2.0 | 6.0 | 0.00 | 0.00 | 0.00 | 78 | 1022.9 |
| 20260830021830 | 72 | 178 | 0.0 | 6.0 | 0.00 | 0.00 | 0.00 | 78 | 1023.0 |
| 20260830021342 | 71 | 159 | 4.0 | 6.0 | 0.00 | 0.00 | 0.00 | 78 | 1023.0 |
| 20260830020833 | 71 | 170 | 2.0 | 5.0 | 0.00 | 0.00 | 0.00 | 78 | 1023.0 |
| 20260830020324 | 72 | 179 | 0.0 | 4.0 | 0.00 | 0.00 | 0.00 | 78 | 1023.1 |
| 20260830015833 | 72 | 168 | 2.0 | 6.0 | 0.00 | 0.00 | 0.00 | 77 | 1023.0 |
| 20260830015325 | 72 | 154 | 2.0 | 6.0 | 0.00 | 0.00 | 0.00 | 77 | 1023.0 |
| 20260830014817 | 72 | 184 | 2.0 | 6.0 | 0.00 | 0.00 | 0.00 | 77 | 1022.9 |
| 20260830014330 | 72 | 140 | 4.0 | 9.0 | 0.00 | 0.00 | 0.00 | 77 | 1022.9 |
| 20260830013822 | 72 | 166 | 4.0 | 9.0 | 0.00 | 0.00 | 0.00 | 77 | 1022.7 |
| 20260830013318 | 72 | 163 | 4.0 | 9.0 | 0.00 | 0.00 | 0.00 | 77 | 1022.9 |
| 20260830012830 | 72 | 169 | 4.0 | 8.0 | 0.00 | 0.00 | 0.00 | 77 | 1022.7 |
| 20260830012322 | 72 | 146 | 2.0 | 8.0 | 0.00 | 0.00 | 0.00 | 77 | 1022.6 |
| 20260830011814 | 72 | 181 | 4.0 | 7.0 | 0.00 | 0.00 | 0.00 | 77 | 1022.7 |
| 20260830011325 | 72 | 168 | 2.0 | 8.0 | 0.00 | 0.00 | 0.00 | 77 | 1022.6 |
| 20260830010817 | 72 | 150 | 4.0 | 7.0 | 0.00 | 0.00 | 0.00 | 77 | 1022.7 |
| 20260830010329 | 72 | 149 | 3.0 | 7.0 | 0.00 | 0.00 | 0.00 | 77 | 1022.6 |
| 20260830005819 | 72 | 154 | 4.0 | 7.0 | 0.00 | 0.00 | 0.00 | 77 | 1022.5 |
| 20260830005314 | 72 | 159 | 4.0 | 7.0 | 0.00 | 0.00 | 0.00 | 76 | 1022.6 |
| 20260830004827 | 72 | 151 | 2.0 | 8.0 | 0.00 | 0.00 | 0.00 | 76 | 1022.5 |
| 20260830004318 | 72 | 145 | 3.0 | 8.0 | 0.00 | 0.00 | 0.00 | 76 | 1022.5 |